| time (UTC) | temp F | wind direction | speed MPH | gust MPH | rain 1hr in | rain 24hr in | rain mn in | humidity % | barometer mb |
| 20260506091505 | 59 | 171 | 0.0 | 1.0 | 0.00 | 0.00 | 0.00 | 89 | 1016.7 |
| 20260506091005 | 59 | 171 | 0.0 | 0.0 | 0.00 | 0.00 | 0.00 | 89 | 1016.6 |
| 20260506090504 | 60 | 171 | 0.0 | 2.0 | 0.00 | 0.00 | 0.00 | 88 | 1016.7 |
| 20260506090014 | 60 | 171 | 0.0 | 2.0 | 0.00 | 0.00 | 0.00 | 88 | 1016.5 |
| 20260506085505 | 60 | 171 | 0.0 | 1.0 | 0.00 | 0.00 | 0.00 | 88 | 1016.5 |
| 20260506085004 | 60 | 171 | 1.0 | 2.0 | 0.00 | 0.00 | 0.00 | 88 | 1016.4 |
| 20260506084511 | 60 | 176 | 0.0 | 2.0 | 0.00 | 0.00 | 0.00 | 88 | 1016.5 |
| 20260506084002 | 60 | 176 | 0.0 | 2.0 | 0.00 | 0.00 | 0.00 | 88 | 1016.5 |
| 20260506083503 | 60 | 179 | 0.0 | 2.0 | 0.00 | 0.00 | 0.00 | 88 | 1016.5 |
| 20260506083004 | 61 | 182 | 0.0 | 2.0 | 0.00 | 0.00 | 0.00 | 87 | 1016.6 |
| 20260506082503 | 60 | 184 | 0.0 | 2.0 | 0.00 | 0.00 | 0.00 | 87 | 1016.7 |
| 20260506082003 | 61 | 174 | 1.0 | 2.0 | 0.00 | 0.00 | 0.00 | 87 | 1016.7 |
| 20260506081506 | 61 | 184 | 1.0 | 2.0 | 0.00 | 0.00 | 0.00 | 87 | 1016.6 |
| 20260506081004 | 61 | 175 | 0.0 | 2.0 | 0.00 | 0.00 | 0.00 | 87 | 1016.7 |
| 20260506080504 | 61 | 171 | 0.0 | 2.0 | 0.00 | 0.00 | 0.00 | 87 | 1016.7 |
| 20260506073508 | 61 | 203 | 0.0 | 2.0 | 0.00 | 0.00 | 0.00 | 87 | 1016.5 |
| 20260506073033 | 61 | 200 | 1.0 | 2.0 | 0.00 | 0.00 | 0.00 | 86 | 1016.5 |
| 20260506072504 | 61 | 178 | 1.0 | 2.0 | 0.00 | 0.00 | 0.00 | 87 | 1016.4 |
| 20260506072003 | 61 | 191 | 1.0 | 3.0 | 0.00 | 0.00 | 0.00 | 87 | 1016.4 |
| 20260506071505 | 61 | 187 | 1.0 | 4.0 | 0.00 | 0.00 | 0.00 | 87 | 1016.3 |
| 20260506071006 | 61 | 184 | 2.0 | 4.0 | 0.00 | 0.00 | 0.00 | 87 | 1016.4 |
| 20260506070503 | 61 | 160 | 2.0 | 3.0 | 0.00 | 0.00 | 0.00 | 88 | 1016.4 |
| 20260506062507 | 60 | 160 | 0.0 | 2.0 | 0.00 | 0.00 | 0.00 | 88 | 1017.1 |
| 20260506062010 | 60 | 160 | 1.0 | 2.0 | 0.00 | 0.00 | 0.00 | 88 | 1017.1 |
| 20260506061520 | 60 | 160 | 1.0 | 1.0 | 0.00 | 0.00 | 0.00 | 88 | 1017.1 |
| 20260506061004 | 60 | 160 | 1.0 | 1.0 | 0.00 | 0.00 | 0.00 | 88 | 1017.2 |
| 20260506060504 | 60 | 160 | 0.0 | 1.0 | 0.00 | 0.00 | 0.00 | 87 | 1017.3 |
| 20260506051008 | 61 | 179 | 1.0 | 2.0 | 0.00 | 0.00 | 0.00 | 87 | 1017.7 |
| 20260506050510 | 61 | 174 | 0.0 | 2.0 | 0.00 | 0.00 | 0.00 | 87 | 1017.7 |
| 20260506045003 | 62 | 178 | 0.0 | 2.0 | 0.00 | 0.00 | 0.00 | 86 | 1017.7 |
| 20260506044531 | 62 | 178 | 0.0 | 0.0 | 0.00 | 0.00 | 0.00 | 86 | 1017.8 |
| 20260506044003 | 62 | 178 | 0.0 | 2.0 | 0.00 | 0.00 | 0.00 | 86 | 1017.9 |
| 20260506043505 | 62 | 178 | 0.0 | 2.0 | 0.00 | 0.00 | 0.00 | 85 | 1017.9 |
| 20260506043017 | 62 | 178 | 0.0 | 2.0 | 0.00 | 0.00 | 0.00 | 85 | 1017.9 |
| 20260506042504 | 62 | 178 | 0.0 | 2.0 | 0.00 | 0.00 | 0.00 | 85 | 1017.9 |
| 20260506042011 | 62 | 178 | 0.0 | 0.0 | 0.00 | 0.00 | 0.00 | 84 | 1017.9 |
| 20260506041519 | 62 | 178 | 0.0 | 2.0 | 0.00 | 0.00 | 0.00 | 85 | 1018.0 |
| 20260506041009 | 62 | 178 | 0.0 | 2.0 | 0.00 | 0.00 | 0.00 | 1017.9 | |
| 20260506040508 | 62 | 178 | 0.0 | 2.0 | 0.00 | 0.00 | 0.00 | 1017.9 | |
| 20260506040022 | 62 | 178 | 0.0 | 2.0 | 0.00 | 0.00 | 0.00 | 1017.8 | |
| 20260506035511 | 63 | 176 | 1.0 | 2.0 | 0.00 | 0.00 | 0.00 | 83 | 1017.8 |
| 20260506035011 | 63 | 165 | 1.0 | 2.0 | 0.00 | 0.00 | 0.00 | 83 | 1017.9 |
| 20260506034518 | 63 | 165 | 0.0 | 2.0 | 0.00 | 0.00 | 0.00 | 83 | 1018.0 |
| 20260506034005 | 63 | 165 | 0.0 | 2.0 | 0.00 | 0.00 | 0.00 | 83 | 1018.0 |
| 20260506033504 | 63 | 165 | 0.0 | 0.0 | 0.00 | 0.00 | 0.00 | 82 | 1018.0 |
| 20260506033012 | 63 | 165 | 0.0 | 1.0 | 0.00 | 0.00 | 0.00 | 82 | 1018.2 |
| 20260506032507 | 64 | 165 | 0.0 | 1.0 | 0.00 | 0.00 | 0.00 | 82 | 1018.1 |
| 20260506032007 | 64 | 165 | 0.0 | 2.0 | 0.00 | 0.00 | 0.00 | 81 | 1018.0 |
| 20260506031517 | 64 | 165 | 0.0 | 2.0 | 0.00 | 0.00 | 0.00 | 81 | 1018.0 |
| 20260506031009 | 64 | 165 | 0.0 | 1.0 | 0.00 | 0.00 | 0.00 | 80 | 1017.9 |
| 20260506030504 | 64 | 165 | 0.0 | 0.0 | 0.00 | 0.00 | 0.00 | 80 | 1017.9 |
| 20260506030003 | 65 | 165 | 0.0 | 0.0 | 0.00 | 0.00 | 0.00 | 80 | 1017.9 |
| 20260506025503 | 65 | 165 | 0.0 | 0.0 | 0.00 | 0.00 | 0.00 | 80 | 1017.9 |
| 20260506025003 | 65 | 165 | 0.0 | 0.0 | 0.00 | 0.00 | 0.00 | 80 | 1017.7 |
| 20260506024502 | 65 | 165 | 0.0 | 0.0 | 0.00 | 0.00 | 0.00 | 79 | 1017.6 |
| 20260506024004 | 65 | 165 | 0.0 | 2.0 | 0.00 | 0.00 | 0.00 | 79 | 1017.6 |
| 20260506023504 | 66 | 165 | 0.0 | 2.0 | 0.00 | 0.00 | 0.00 | 78 | 1017.5 |
| 20260506023002 | 66 | 165 | 0.0 | 2.0 | 0.00 | 0.00 | 0.00 | 77 | 1017.4 |
| 20260506022502 | 66 | 165 | 0.0 | 2.0 | 0.00 | 0.00 | 0.00 | 76 | 1017.5 |
| 20260506022002 | 67 | 165 | 0.0 | 2.0 | 0.00 | 0.00 | 0.00 | 76 | 1017.4 |
| 20260506021503 | 67 | 165 | 0.0 | 2.0 | 0.00 | 0.00 | 0.00 | 76 | 1017.4 |
| 20260506021002 | 67 | 165 | 0.0 | 2.0 | 0.00 | 0.00 | 0.00 | 75 | 1017.3 |
| 20260506020503 | 67 | 178 | 0.0 | 2.0 | 0.00 | 0.00 | 0.00 | 74 | 1017.3 |
| 20260506020004 | 67 | 184 | 1.0 | 2.0 | 0.00 | 0.00 | 0.00 | 74 | 1017.2 |
| 20260506015504 | 68 | 187 | 1.0 | 2.0 | 0.00 | 0.00 | 0.00 | 74 | 1017.1 |
| 20260506015011 | 68 | 108 | 1.0 | 2.0 | 0.00 | 0.00 | 0.00 | 74 | 1017.1 |
| 20260506014504 | 68 | 148 | 0.0 | 2.0 | 0.00 | 0.00 | 0.00 | 73 | 1017.0 |
| 20260506014003 | 68 | 117 | 0.0 | 2.0 | 0.00 | 0.00 | 0.00 | 73 | 1016.9 |
| 20260506013504 | 68 | 70 | 0.0 | 2.0 | 0.00 | 0.00 | 0.00 | 72 | 1016.8 |
| 20260506013002 | 69 | 153 | 0.0 | 2.0 | 0.00 | 0.00 | 0.00 | 72 | 1016.8 |
| 20260506012502 | 69 | 188 | 1.0 | 2.0 | 0.00 | 0.00 | 0.00 | 71 | 1016.9 |
| 20260506012001 | 69 | 123 | 0.0 | 3.0 | 0.00 | 0.00 | 0.00 | 71 | 1016.8 |
| 20260506011507 | 69 | 160 | 1.0 | 3.0 | 0.00 | 0.00 | 0.00 | 70 | 1016.7 |
| 20260506011005 | 70 | 156 | 1.0 | 2.0 | 0.00 | 0.00 | 0.00 | 70 | 1016.7 |
| 20260506010503 | 70 | 155 | 0.0 | 2.0 | 0.00 | 0.00 | 0.00 | 69 | 1016.7 |
| 20260506010005 | 70 | 186 | 0.0 | 3.0 | 0.00 | 0.00 | 0.00 | 68 | 1016.6 |
| 20260506005503 | 70 | 89 | 1.0 | 3.0 | 0.00 | 0.00 | 0.00 | 68 | 1016.7 |
| 20260506005002 | 71 | 198 | 0.0 | 2.0 | 0.00 | 0.00 | 0.00 | 67 | 1016.7 |
| 20260506004504 | 71 | 6 | 0.0 | 4.0 | 0.00 | 0.00 | 0.00 | 67 | 1016.6 |
| 20260506004003 | 71 | 117 | 0.0 | 4.0 | 0.00 | 0.00 | 0.00 | 66 | 1016.6 |
| 20260506003504 | 72 | 73 | 0.0 | 2.0 | 0.00 | 0.00 | 0.00 | 66 | 1016.5 |
| 20260506003009 | 72 | 150 | 0.0 | 3.0 | 0.00 | 0.00 | 0.00 | 65 | 1016.6 |
| 20260506002506 | 72 | 158 | 1.0 | 3.0 | 0.00 | 0.00 | 0.00 | 64 | 1016.6 |
| 20260506002004 | 72 | 159 | 1.0 | 4.0 | 0.00 | 0.00 | 0.00 | 63 | 1016.6 |
| 20260506001502 | 73 | 139 | 1.0 | 4.0 | 0.00 | 0.00 | 0.00 | 62 | 1016.6 |
| 20260506001002 | 73 | 115 | 1.0 | 3.0 | 0.00 | 0.00 | 0.00 | 62 | 1016.6 |
| 20260506000507 | 74 | 82 | 1.0 | 4.0 | 0.00 | 0.00 | 0.00 | 61 | 1016.6 |
| 20260506000003 | 74 | 141 | 1.0 | 4.0 | 0.00 | 0.00 | 0.00 | 60 | 1016.5 |
| 20260505235504 | 75 | 75 | 2.0 | 5.0 | 0.00 | 0.00 | 0.00 | 59 | 1016.4 |
| 20260505235003 | 75 | 221 | 2.0 | 7.0 | 0.00 | 0.00 | 0.00 | 58 | 1016.5 |
| 20260505234508 | 75 | 84 | 1.0 | 8.0 | 0.00 | 0.00 | 0.00 | 58 | 1016.5 |
| 20260505234003 | 75 | 103 | 3.0 | 8.0 | 0.00 | 0.00 | 0.00 | 57 | 1016.5 |
| 20260505233503 | 76 | 83 | 2.0 | 10.0 | 0.00 | 0.00 | 0.00 | 56 | 1016.4 |
| 20260505233008 | 76 | 63 | 1.0 | 10.0 | 0.00 | 0.00 | 0.00 | 56 | 1016.5 |
| 20260505232503 | 76 | 124 | 3.0 | 10.0 | 0.00 | 0.00 | 0.00 | 55 | 1016.3 |
| 20260505232005 | 76 | 161 | 2.0 | 8.0 | 0.00 | 0.00 | 0.00 | 53 | 1016.4 |
| 20260505231513 | 76 | 117 | 3.0 | 9.0 | 0.00 | 0.00 | 0.00 | 52 | 1016.5 |
| 20260505231003 | 77 | 125 | 5.0 | 9.0 | 0.00 | 0.00 | 0.00 | 51 | 1016.5 |
| 20260505230502 | 77 | 154 | 1.0 | 10.0 | 0.00 | 0.00 | 0.00 | 51 | 1016.4 |
| 20260505230006 | 77 | 87 | 4.0 | 10.0 | 0.00 | 0.00 | 0.00 | 50 | 1016.3 |
| 20260505225503 | 78 | 117 | 3.0 | 9.0 | 0.00 | 0.00 | 0.00 | 50 | 1016.4 |
| 20260505225004 | 78 | 193 | 3.0 | 8.0 | 0.00 | 0.00 | 0.00 | 49 | 1016.4 |
| 20260505224503 | 78 | 129 | 2.0 | 8.0 | 0.00 | 0.00 | 0.00 | 49 | 1016.2 |
| 20260505224002 | 78 | 86 | 4.0 | 11.0 | 0.00 | 0.00 | 0.00 | 49 | 1016.3 |
| 20260505223505 | 79 | 86 | 5.0 | 11.0 | 0.00 | 0.00 | 0.00 | 49 | 1016.3 |
| 20260505223005 | 79 | 155 | 4.0 | 9.0 | 0.00 | 0.00 | 0.00 | 49 | 1016.3 |
| 20260505222506 | 79 | 110 | 2.0 | 10.0 | 0.00 | 0.00 | 0.00 | 49 | 1016.2 |
| 20260505222004 | 79 | 105 | 1.0 | 10.0 | 0.00 | 0.00 | 0.00 | 49 | 1016.1 |
| 20260505221512 | 79 | 70 | 3.0 | 12.0 | 0.00 | 0.00 | 0.00 | 50 | 1016.0 |
| 20260505221011 | 79 | 81 | 5.0 | 12.0 | 0.00 | 0.00 | 0.00 | 49 | 1016.0 |
| 20260505220503 | 79 | 120 | 6.0 | 13.0 | 0.00 | 0.00 | 0.00 | 48 | 1016.1 |
| 20260505220024 | 79 | 110 | 8.0 | 13.0 | 0.00 | 0.00 | 0.00 | 48 | 1016.1 |
| 20260505215503 | 79 | 161 | 4.0 | 13.0 | 0.00 | 0.00 | 0.00 | 48 | 1016.2 |
| 20260505215003 | 79 | 152 | 8.0 | 13.0 | 0.00 | 0.00 | 0.00 | 48 | 1016.1 |
| 20260505214523 | 79 | 150 | 5.0 | 11.0 | 0.00 | 0.00 | 0.00 | 47 | 1016.1 |
| 20260505214003 | 80 | 150 | 7.0 | 10.0 | 0.00 | 0.00 | 0.00 | 47 | 1016.2 |
| 20260505213503 | 80 | 150 | 5.0 | 12.0 | 0.00 | 0.00 | 0.00 | 47 | 1016.2 |
| 20260505213004 | 80 | 162 | 5.0 | 12.0 | 0.00 | 0.00 | 0.00 | 47 | 1016.2 |
| 20260505212508 | 81 | 180 | 8.0 | 12.0 | 0.00 | 0.00 | 0.00 | 47 | 1016.2 |
| 20260505212010 | 81 | 134 | 4.0 | 11.0 | 0.00 | 0.00 | 0.00 | 48 | 1016.2 |
| 20260505211506 | 81 | 148 | 7.0 | 14.0 | 0.00 | 0.00 | 0.00 | 47 | 1016.2 |
| 20260505211006 | 81 | 179 | 3.0 | 14.0 | 0.00 | 0.00 | 0.00 | 47 | 1016.3 |
| 20260505210504 | 81 | 146 | 8.0 | 12.0 | 0.00 | 0.00 | 0.00 | 46 | 1016.2 |
| 20260505210015 | 81 | 150 | 7.0 | 11.0 | 0.00 | 0.00 | 0.00 | 46 | 1016.1 |
| 20260505205007 | 82 | 71 | 6.0 | 13.0 | 0.00 | 0.00 | 0.00 | 45 | 1016.2 |
| 20260505204519 | 82 | 59 | 4.0 | 13.0 | 0.00 | 0.00 | 0.00 | 46 | 1016.2 |
| 20260505204006 | 82 | 175 | 8.0 | 13.0 | 0.00 | 0.00 | 0.00 | 45 | 1016.3 |
| 20260505203504 | 82 | 93 | 3.0 | 12.0 | 0.00 | 0.00 | 0.00 | 46 | 1016.3 |
| 20260505203003 | 82 | 101 | 5.0 | 11.0 | 0.00 | 0.00 | 0.00 | 46 | 1016.3 |
| 20260505202510 | 82 | 179 | 7.0 | 11.0 | 0.00 | 0.00 | 0.00 | 47 | 1016.4 |
| 20260505202013 | 82 | 144 | 4.0 | 10.0 | 0.00 | 0.00 | 0.00 | 47 | 1016.4 |
| 20260505201525 | 82 | 150 | 4.0 | 9.0 | 0.00 | 0.00 | 0.00 | 46 | 1016.4 |
| 20260505201003 | 82 | 143 | 3.0 | 11.0 | 0.00 | 0.00 | 0.00 | 46 | 1016.4 |
| 20260505200504 | 82 | 186 | 3.0 | 11.0 | 0.00 | 0.00 | 0.00 | 46 | 1016.4 |
| 20260505200013 | 82 | 98 | 5.0 | 13.0 | 0.00 | 0.00 | 0.00 | 46 | 1016.5 |
| 20260505195504 | 81 | 157 | 6.0 | 13.0 | 0.00 | 0.00 | 0.00 | 47 | 1016.6 |
| 20260505195005 | 82 | 149 | 7.0 | 11.0 | 0.00 | 0.00 | 0.00 | 46 | 1016.7 |
| 20260505194530 | 82 | 160 | 7.0 | 11.0 | 0.00 | 0.00 | 0.00 | 47 | 1016.6 |
| 20260505194006 | 82 | 165 | 5.0 | 10.0 | 0.00 | 0.00 | 0.00 | 47 | 1016.6 |
| 20260505193509 | 82 | 162 | 2.0 | 12.0 | 0.00 | 0.00 | 0.00 | 46 | 1016.7 |
| 20260505193012 | 83 | 174 | 8.0 | 12.0 | 0.00 | 0.00 | 0.00 | 47 | 1016.7 |
| 20260505192504 | 82 | 108 | 3.0 | 9.0 | 0.00 | 0.00 | 0.00 | 46 | 1016.8 |
| 20260505192003 | 82 | 173 | 3.0 | 11.0 | 0.00 | 0.00 | 0.00 | 47 | 1016.8 |
| 20260505191532 | 81 | 108 | 5.0 | 11.0 | 0.00 | 0.00 | 0.00 | 47 | 1017.0 |
| 20260505191018 | 81 | 83 | 4.0 | 11.0 | 0.00 | 0.00 | 0.00 | 48 | 1016.9 |
| 20260505190505 | 81 | 128 | 5.0 | 13.0 | 0.00 | 0.00 | 0.00 | 48 | 1017.0 |
| 20260505190011 | 81 | 58 | 2.0 | 13.0 | 0.00 | 0.00 | 0.00 | 48 | 1016.9 |
| 20260505185504 | 82 | 108 | 6.0 | 11.0 | 0.00 | 0.00 | 0.00 | 48 | 1017.0 |
| 20260505185008 | 81 | 27 | 5.0 | 12.0 | 0.00 | 0.00 | 0.00 | 48 | 1017.0 |
| 20260505184528 | 81 | 156 | 4.0 | 12.0 | 0.00 | 0.00 | 0.00 | 47 | 1017.1 |
| 20260505184007 | 81 | 101 | 8.0 | 11.0 | 0.00 | 0.00 | 0.00 | 45 | 1017.1 |
| 20260505183509 | 82 | 71 | 3.0 | 9.0 | 0.00 | 0.00 | 0.00 | 46 | 1017.0 |
| 20260505183028 | 82 | 27 | 3.0 | 8.0 | 0.00 | 0.00 | 0.00 | 41 | 1017.1 |
| 20260505182503 | 82 | 43 | 2.0 | 8.0 | 0.00 | 0.00 | 0.00 | 41 | 1017.3 |
| 20260505182009 | 83 | 289 | 4.0 | 6.0 | 0.00 | 0.00 | 0.00 | 40 | 1017.3 |
| 20260505181504 | 83 | 79 | 4.0 | 6.0 | 0.00 | 0.00 | 0.00 | 40 | 1017.5 |
| 20260505181005 | 83 | 159 | 3.0 | 10.0 | 0.00 | 0.00 | 0.00 | 40 | 1017.5 |
| 20260505180510 | 82 | 139 | 5.0 | 10.0 | 0.00 | 0.00 | 0.00 | 41 | 1017.5 |
| 20260505180008 | 82 | 293 | 2.0 | 6.0 | 0.00 | 0.00 | 0.00 | 40 | 1017.5 |
| 20260505175502 | 82 | 222 | 4.0 | 8.0 | 0.00 | 0.00 | 0.00 | 42 | 1017.5 |
| 20260505175002 | 82 | 284 | 4.0 | 10.0 | 0.00 | 0.00 | 0.00 | 41 | 1017.6 |
| 20260505174002 | 81 | 188 | 5.0 | 9.0 | 0.00 | 0.00 | 0.00 | 45 | 1017.8 |
| 20260505173503 | 81 | 200 | 5.0 | 9.0 | 0.00 | 0.00 | 0.00 | 45 | 1017.8 |
| 20260505173002 | 80 | 185 | 3.0 | 8.0 | 0.00 | 0.00 | 0.00 | 44 | 1017.8 |
| 20260505172502 | 81 | 216 | 6.0 | 8.0 | 0.00 | 0.00 | 0.00 | 43 | 1017.8 |
| 20260505172003 | 81 | 259 | 4.0 | 9.0 | 0.00 | 0.00 | 0.00 | 44 | 1017.8 |
| 20260505171504 | 80 | 239 | 6.0 | 9.0 | 0.00 | 0.00 | 0.00 | 43 | 1017.8 |
| 20260505171004 | 81 | 207 | 5.0 | 9.0 | 0.00 | 0.00 | 0.00 | 44 | 1017.7 |
| 20260505170507 | 81 | 201 | 5.0 | 8.0 | 0.00 | 0.00 | 0.00 | 45 | 1017.7 |
| 20260505170019 | 80 | 88 | 3.0 | 11.0 | 0.00 | 0.00 | 0.00 | 43 | 1017.7 |
| 20260505165504 | 80 | 120 | 5.0 | 11.0 | 0.00 | 0.00 | 0.00 | 44 | 1017.9 |
| 20260505165006 | 80 | 184 | 2.0 | 7.0 | 0.00 | 0.00 | 0.00 | 46 | 1017.9 |
| 20260505164502 | 80 | 133 | 2.0 | 12.0 | 0.00 | 0.00 | 0.00 | 43 | 1018.0 |
| 20260505164002 | 80 | 162 | 7.0 | 11.0 | 0.00 | 0.00 | 0.00 | 43 | 1018.1 |
| 20260505163502 | 80 | 74 | 3.0 | 7.0 | 0.00 | 0.00 | 0.00 | 47 | 1018.2 |
| 20260505163014 | 80 | 213 | 4.0 | 7.0 | 0.00 | 0.00 | 0.00 | 47 | 1018.2 |
| 20260505162503 | 80 | 148 | 3.0 | 6.0 | 0.00 | 0.00 | 0.00 | 46 | 1018.4 |
| 20260505162003 | 80 | 44 | 3.0 | 6.0 | 0.00 | 0.00 | 0.00 | 47 | 1018.5 |
| 20260505161522 | 79 | 16 | 1.0 | 4.0 | 0.00 | 0.00 | 0.00 | 48 | 1018.4 |
| 20260505161002 | 79 | 30 | 2.0 | 5.0 | 0.00 | 0.00 | 0.00 | 48 | 1018.4 |
| 20260505160504 | 80 | 162 | 3.0 | 5.0 | 0.00 | 0.00 | 0.00 | 49 | 1018.4 |
| 20260505152006 | 78 | 150 | 3.0 | 8.0 | 0.00 | 0.00 | 0.00 | 55 | 1018.7 |
| 20260505151503 | 77 | 82 | 2.0 | 7.0 | 0.00 | 0.00 | 0.00 | 57 | 1018.7 |
| 20260505151003 | 77 | 354 | 1.0 | 8.0 | 0.00 | 0.00 | 0.00 | 58 | 1018.7 |
| 20260505150503 | 76 | 95 | 3.0 | 8.0 | 0.00 | 0.00 | 0.00 | 58 | 1018.8 |
| 20260505140505 | 74 | 143 | 4.0 | 8.0 | 0.00 | 0.00 | 0.00 | 65 | 1018.6 |
| 20260505125004 | 64 | 186 | 3.0 | 5.0 | 0.00 | 0.00 | 0.00 | 87 | 1018.2 |
| 20260505124508 | 63 | 185 | 3.0 | 4.0 | 0.00 | 0.00 | 0.00 | 89 | 1018.1 |
| 20260505124005 | 62 | 223 | 0.0 | 2.0 | 0.00 | 0.00 | 0.00 | 91 | 1018.1 |
| 20260505123508 | 61 | 282 | 0.0 | 2.0 | 0.00 | 0.00 | 0.00 | 92 | 1018.0 |
| 20260505123011 | 60 | 283 | 0.0 | 1.0 | 0.00 | 0.00 | 0.00 | 93 | 1018.1 |
| 20260505122505 | 59 | 283 | 0.0 | 2.0 | 0.00 | 0.00 | 0.00 | 94 | 1018.1 |
| 20260505122006 | 58 | 283 | 0.0 | 2.0 | 0.00 | 0.00 | 0.00 | 93 | 1018.2 |
| 20260505121518 | 58 | 283 | 0.0 | 0.0 | 0.00 | 0.00 | 0.00 | 94 | 1018.2 |
| 20260505121003 | 57 | 283 | 0.0 | 0.0 | 0.00 | 0.00 | 0.00 | 93 | 1018.2 |
| 20260505120504 | 56 | 283 | 0.0 | 0.0 | 0.00 | 0.00 | 0.00 | 93 | 1018.1 |
| 20260505120004 | 56 | 283 | 0.0 | 0.0 | 0.00 | 0.00 | 0.00 | 93 | 1018.1 |
| 20260505115507 | 55 | 283 | 0.0 | 0.0 | 0.00 | 0.00 | 0.00 | 93 | 1017.9 |
| 20260505115003 | 55 | 283 | 0.0 | 0.0 | 0.00 | 0.00 | 0.00 | 93 | 1017.8 |
| 20260505114506 | 54 | 283 | 0.0 | 0.0 | 0.00 | 0.00 | 0.00 | 93 | 1017.9 |
| 20260505114003 | 54 | 283 | 0.0 | 0.0 | 0.00 | 0.00 | 0.00 | 93 | 1017.8 |
| 20260505113504 | 54 | 283 | 0.0 | 0.0 | 0.00 | 0.00 | 0.00 | 93 | 1017.7 |
| 20260505113012 | 54 | 283 | 0.0 | 0.0 | 0.00 | 0.00 | 0.00 | 93 | 1017.6 |
| 20260505111002 | 53 | 159 | 0.0 | 0.0 | 0.00 | 0.00 | 0.00 | 93 | 1017.6 |
| 20260505102006 | 53 | 148 | 0.0 | 0.0 | 0.00 | 0.00 | 0.00 | 92 | 1017.3 |
| 20260505101514 | 53 | 148 | 0.0 | 0.0 | 0.00 | 0.00 | 0.00 | 92 | 1017.3 |
| 20260505101008 | 53 | 148 | 0.0 | 0.0 | 0.00 | 0.00 | 0.00 | 92 | 1017.4 |
| 20260505100506 | 53 | 148 | 0.0 | 0.0 | 0.00 | 0.00 | 0.00 | 92 | 1017.2 |
| 20260505100004 | 53 | 148 | 0.0 | 0.0 | 0.00 | 0.00 | 0.00 | 92 | 1017.1 |
| 20260505095503 | 53 | 148 | 0.0 | 0.0 | 0.00 | 0.00 | 0.00 | 92 | 1017.0 |
| 20260505095002 | 53 | 148 | 0.0 | 0.0 | 0.00 | 0.00 | 0.00 | 92 | 1017.1 |
| 20260505094504 | 53 | 148 | 0.0 | 0.0 | 0.00 | 0.00 | 0.00 | 92 | 1017.0 |
| 20260505094003 | 53 | 148 | 0.0 | 0.0 | 0.00 | 0.00 | 0.00 | 92 | 1017.0 |
| 20260505093507 | 53 | 148 | 0.0 | 0.0 | 0.00 | 0.00 | 0.00 | 92 | 1016.9 |
| 20260505093009 | 53 | 148 | 0.0 | 0.0 | 0.00 | 0.00 | 0.00 | 92 | 1016.8 |
| 20260505092503 | 53 | 148 | 0.0 | 0.0 | 0.00 | 0.00 | 0.00 | 92 | 1016.7 |
| 20260505092007 | 53 | 148 | 0.0 | 0.0 | 0.00 | 0.00 | 0.00 | 91 | 1016.7 |